This is the latest recevied weather packets stored in our database for station/object K4VEB. If no packets are shown the sender has not sent any weather packets the latest 10 day(s).
| Time | Temp. | Humidity | Pressure | Rain* | Wind** | Luminosity | Snow |
|---|---|---|---|---|---|---|---|
| 1777985612 | 21.67° C | 75% | 1016.4 hPa | 0 mm | - | 219 W/m² | - |
| 1777985309 | 21.67° C | 75% | 1016.4 hPa | 0 mm | - | 187 W/m² | - |
| 1777985006 | 22.22° C | 74% | 1016.4 hPa | 0 mm | - | 130 W/m² | - |
| 1777984702 | 21.11° C | 77% | 1016.2 hPa | 0 mm | - | 194 W/m² | - |
| 1777984398 | 21.11° C | 77% | 1016.2 hPa | 0 mm | - | 194 W/m² | - |
| 1777984095 | 20.56° C | 78% | 1016.2 hPa | 0 mm | - | 167 W/m² | - |
| 1777983792 | 20° C | 79% | 1016.5 hPa | 0 mm | - | 156 W/m² | - |
| 1777983489 | 20° C | 79% | 1016.3 hPa | 0 mm | - | 123 W/m² | - |
| 1777983186 | 19.44° C | 82% | 1016.3 hPa | 0 mm | - | 132 W/m² | - |
| 1777982882 | 18.89° C | 83% | 1016.3 hPa | 0 mm | - | 128 W/m² | - |
| 1777982578 | 18.89° C | 84% | 1016.3 hPa | 0 mm | - | 87 W/m² | - |
| 1777982276 | 17.78° C | 87% | 1016.2 hPa | 0 mm | - | 54 W/m² | - |
| 1777981974 | 17.78° C | 87% | 1016.2 hPa | 0 mm | - | 54 W/m² | - |
| 1777981671 | 17.78° C | 88% | 1015.9 hPa | 0 mm | - | 49 W/m² | - |
| 1777981064 | 16.67° C | 89% | 1015.9 hPa | 0 mm | - | 31 W/m² | - |
| 1777980761 | 16.67° C | 89% | 1016 hPa | 0 mm | - | 31 W/m² | - |
| 1777980457 | 16.67° C | 90% | 1015.9 hPa | 0 mm | - | 24 W/m² | - |
| 1777980155 | 16.67° C | 90% | 1016 hPa | 0 mm | - | 24 W/m² | - |
| 1777979855 | 16.67° C | 90% | 1015.9 hPa | 0 mm | - | 22 W/m² | - |
| 1777979551 | 16.67° C | 90% | 1015.9 hPa | 0 mm | - | 18 W/m² | - |
| 1777979247 | 16.67° C | 90% | 1015.6 hPa | 0 mm | - | 17 W/m² | - |
| 1777978945 | 16.11° C | 91% | 1015.6 hPa | 0 mm | - | 14 W/m² | - |
| 1777978641 | 16.11° C | 91% | 1015.4 hPa | 0 mm | - | 10 W/m² | - |
| 1777978337 | 16.11° C | 91% | 1015.2 hPa | 0 mm | - | 3 W/m² | - |
| 1777978034 | 16.11° C | 91% | 1015.2 hPa | 0 mm | - | 3 W/m² | - |
* Rain latest hour (hover to see other rain measurements)
** Current wind speed in m/s (hover to see current wind gust speed)